Location: Newark
(48.1500°N, 13.1167°E)
Time: 07:59:44
(UTC+00:00)

KAITUO 1B - Pass Details

Date: 28 November 2021
Orbit: 486 x 507 km, 97.4° (Epoch: 18 January)

Event Time Altitude Azimuth Distance (km) Brightness Sun altitude
Rises 17:28:04 0° 194° (SSW) 2,586 ? -21.1°
Reaches altitude 10° 17:30:23 10° 208° (SSW) 1,712 ? -21.5°
Maximum altitude 17:33:29 25° 265° (W) 1,053 ? -22.0°
Drops below altitude 10° 17:36:38 10° 323° (NW) 1,736 ? -22.5°
Sets 17:39:01 0° 337° (NNW) 2,630 ? -22.9°
